Home   Weather   Rio de Janeiro   Past weeks

Flag for Brazil Past Weather in Rio de Janeiro, Rio de Janeiro, Brazil — Yesterday and Last 2 Weeks

Now
68 °F

Clear.


Feels Like: 68 °F
Forecast: 70 / 79 °F
Wind: 9 mph from South

Location: Rio De Janeiro Airport

Current Time: Jul 22, 2017 at 8:09:41 pm

Latest Report: Jul 22, 2017 at 7:00 pm


Visibility: 10 mi

Pressure: 30.21 "Hg

Humidity: 78%

Dew Point: 61 °F

Location of Rio de JaneiroLocation

Past Weather in Rio de Janeiro — Graph

°F

Rio de Janeiro Temperature Yesterday

Maximum temperature yesterday: 77 °F (at 1:00 pm)
Minimum temperature yesterday: 64 °F (at 6:00 am)
Average temperature yesterday: 71 °F

High & Low Weather Summary for the Past Weeks

 TemperatureHumidityPressure
High84 °F (Jul 17, 1:00 pm)100% (Jul 12, 4:00 am)30.36 "Hg (Jul 12, 4:00 am)
Low61 °F (Jul 19, 5:00 am)30% (Jul 18, 5:00 pm)30.04 "Hg (Jul 17, 3:00 pm)
Average71 °F79%30.21 "Hg
* Reported Jul 7 7:00 pm — Jul 22 7:00 pm, Rio de Janeiro. Weather by CustomWeather, © 2017

Note: Actual official high and low records may vary slightly from our data, if they occured in-between our weather recording intervals... More about our weather records

Advertising

Rio de Janeiro Weather History for the Previous 24 Hours

Scroll right to see more
 ConditionsComfort  
Time TempWeatherWind HumidityBarometerVisibility
7:00 pm
Sat, Jul 22
68 °FClear.9 mph78%30.21 "Hg10 mi
6:00 pm70 °FPassing clouds.10 mph73%30.18 "HgN/A
5:00 pm72 °FScattered clouds.12 mph69%30.18 "HgN/A
4:00 pm73 °FPartly sunny.9 mph69%30.15 "HgN/A
3:00 pm73 °FPartly sunny.12 mph69%30.15 "HgN/A
2:00 pm75 °FPartly sunny.10 mph65%30.15 "HgN/A
1:00 pm75 °FPartly sunny.13 mph69%30.18 "HgN/A
12:00 pm73 °FPartly sunny.6 mph78%30.21 "Hg6 mi
11:00 am75 °FScattered clouds.5 mph74%30.21 "Hg5 mi
10:00 am72 °FPartly sunny.3 mph88%30.24 "Hg4 mi
9:00 am72 °FPartly sunny.6 mph88%30.21 "Hg4 mi
8:00 am68 °FPartly sunny.6 mph94%30.21 "Hg4 mi
7:00 am66 °FScattered clouds.5 mph100%30.18 "Hg4 mi
6:00 am66 °FPassing clouds.3 mph100%30.15 "Hg4 mi
5:00 am66 °FPassing clouds.3 mph100%30.12 "Hg5 mi
4:00 am66 °FPassing clouds.3 mph100%30.09 "Hg5 mi
3:00 am66 °FClear.No wind100%30.09 "Hg5 mi
1:00 am68 °FClear.7 mph94%30.09 "Hg6 mi
12:00 am68 °FClear.2 mph94%30.12 "Hg10 mi
11:00 pm
Fri, Jul 21
68 °FClear.3 mph94%30.12 "Hg10 mi
10:00 pm70 °FClear.6 mph83%30.12 "Hg10 mi
9:00 pm70 °FClear.3 mph83%30.12 "Hg10 mi
8:00 pm70 °FClear.3 mph83%30.09 "Hg10 mi
Weather by CustomWeather, © 2017

See weather overviewHow to use our weather pages